Погода в Сыктывкаре

Погода в Сыктывкаре : погода сейчас, прогноз погоды и архив. Всё, что Вы хотите узнать о погоде в Сыктывкаре!

Поиск расширенной информации на нашем сайте:

Полезная информация: Водосточная система водосток.

Другие новости

Новости СМИ2

Главная страница сайта

Новости сайта

02.10.2013

Напоминаем, что на нашем новом сайте вы можете получить высокодетализированные прогнозы погоды по пунктам России, СНГ и мира (включающие важные для авиации метеовеличины, такие как направление и скорость ветра, видимость, явления погоды, количество и форма облачности, нижняя и верхняя граница облачности), а также ознакомиться с разнообразными материалами по авиационной метеорологии и подборкой полезных ссылок на эту тему.

Сайт Метеоцентр.Азия посвящён разработке технологий оптимизации авиаметеорологического обслуживания, включая проектирование и перспективное создание нескольких автоматизированных авиаметеорологических систем:
- система выпуска высокодетальных прогностических карт явлений погоды для нижнего воздушного пространства по России и ближнему зарубежью;
- система верификации прогнозов TAF (выпускаемых синоптиками официальных АМСГ РФ и ближнего зарубежья) и AUTOTAF (выпускаемых сайтом Метеоцентр.Азия) - выявление ошибок, онлайн-сопоставление с фактической погодой METAR, автоматическое внесение коррективов в прогнозы при резком отклонении фактической погоды от прогноза, подсчёт оправдываемости прогнозов по элементам и в целом;
- система обработки, анализа и отображения авиаметеорологической информации для применения провайдерами метеорологической информации.

Рекомендуем: Реализуем кабель ааблу.

Погода в Сыктывкаре - сегодня

Время (UTC), дата Ветер
(°,м/с) 
Видим.   Явления Облачность Т
(°С)
Тd
(°С)
f(%) Тe
(°С)
Pmin
(гПа)
dP
(гПа)
Po
(мм)
O2
(г/м3)
Тmin Tmax R s Состояние
почвы
06 18.02.17 200 (Ю) 10 км  слаб. снег  10/3 600 м средняя 
[Sc|As op]
-7.6 -8.9 90 -10  994.6  -1.9  735  305           
09 18.02.17 200 (Ю) 10 км  слаб. снег  10/10 450 м 
[Sc]
-5.5 -7.2 88 -8  992.8  -0.4  734  302           
12 18.02.17 200 (Ю) 10 км  слаб. переохл. дождь (гололёд){снег} [диам. гололёда 0 мм]  10/10 360 м 
[Sc]
-4.9 -6 92 -7  991.5  -1.4  733  301           
15 18.02.17 210 (ЮЗ) 10 км  слаб. снег{дождь} [диам. гололёда 1 мм]  10/10 270 м 
[Frnb]
-4.3 -5.2 93 -7  990.1  -1.3  732  300    -4.3     
18 18.02.17 200 (Ю) 10 км  слаб. снег{дождь}  10/10 240 м 
[Frnb]
-3.7 -4.6 93 -6  988.1  -1.9  730  299           
21 18.02.17 220 (ЮЗ) 10 км  слаб. снег  10/4 300 м средняя 
[Sc|As op]
-3.6 -4.2 96 -5  986.3  -1.8  729  298           
00 19.02.17 290 (З) 10 км  слаб. снег  10/6 420 м средняя 
[Sc|Ac As]
-5.7 -7 91 -5  987.8  1.3  730  301           
03 19.02.17 290 (З) 10 км  слаб. снег  10/8 450 м средняя 
[Sc|Ac As]
-7.8 -9.7 86 -9  989.9  731  304  -7.8    76  неравномерный
сухой снег
100% 
06 19.02.17 300 (СЗ) 3{11}  10 км  слаб. ливневой снег  10/6 480 м кучево-дожд., средняя 
[Cb calv|As op]
-9 -11.3 83 -12  993.9  3.9  734  307  -9.2         
09 19.02.17 290 (З) 3{13}  10 км  слаб. снег{ливн. осадки}  9/9 800 м 
[Sc]
-8 -11.9 73 -11  997.8  3.9  737  307           
12 19.02.17 290 (З) 3{11}  20000 м  {ливн. осадки, снег}  4/4 1000 м 
[Sc]
-7.1 -11.8 69 -10  1000.2  2.4  739  307           
15 19.02.17 220 (ЮЗ) 10 км    3/0 средняя 
[Ac lent]
-12.2 -13.7 89 -12  1001.8  1.2  740  313    -6.8  0.6     
18 19.02.17 190 (Ю) 10 км    8/0 средняя, верхняя 
[Ac As|Cs]
-14.3 -15.3 92 -14  1001.5  -0.4  740  316           
21 19.02.17 тихо ()   10 км    10/0 средняя 
[As trans]
-13.4 -14.4 92 -13  999.4  -2.1  738  314           
00 20.02.17 120 (ЮВ) 10 км  слаб. снег  10/0 средняя 
[Ac As]
-11.5 -12.9 89 -15  995.1  -4.1  735  310           
03 20.02.17 110 (В) 10 км  слаб. снег  10/8 450 м средняя 
[Sc|As op]
-10.6 -12.1 89 -14  990.7  -4.3  732  308  -14.8    0.7  77  неравномерный
сухой снег
100% 
06 20.02.17 110 (В) 4000 м  снег  10/6 300 м средняя 
[Sc|As op]
-10.1 -11.4 90 -13  987.1  -3.5  729  306           
09 20.02.17 100 (В) 4000 м  слаб. снег  10/0 средняя 
[Ac As]
-8.7 -10.2 89 -12  983.7  -3.2  727  303           
12 20.02.17 090 (В) 2000 м  снег  10/0 средняя 
[As op]
-7.8 -8.9 92 -11  980  -3.6  724  301           
15 20.02.17 050 (СВ) 2000 м  снег  10/10 240 м 
[Frnb|Ns]
-7.9 -8.7 94 -9  977.5  -2.5  722  301    -7.7     
18 20.02.17 330 (СЗ) 10 км  в посл. час снег  10/10 480 м 
[Sc]
-8.7 -9.6 93 -8  979.3  1.7  724  302           
21 20.02.17 290 (З) 10 км  слаб. снег  10/10 360 м 
[Sc]
-9.9 -11 92 -10  983.5  4.2  727  305           
00 21.02.17 300 (СЗ) 10 км  {снег}  10/10 300 м 
[Sc]
-14.2 -15.3 91 -14  986.8  2.9  729  311           
03 21.02.17 тихо ()   10 км    10/0 средняя 
[As trans]
-17.2 -18.6 89 -17  988.8  1.8  730  315  -17.2    0.9  81  неравномерный
сухой снег
100% 
06 21.02.17 тихо ()   20000 м    8/0 верхняя 
[Ci fib]
-16.5 -18.2 87 -17  989.5  0.8  731  315  -19.8         
Время (UTC), дата Ветер
(°,м/с) 
Видим.   Явления Облачность Т
(°С)
Тd
(°С)
f(%) Тe
(°С)
Pmin
(гПа)
dP
(гПа)
Po
(мм)
O2
(г/м3)
Тmin Tmax R s Состояние
почвы

Для получения пояснительной информации подведите курсор к названию столбца.

ПОГОДА в Сыктывкаре - архив

Всё, что Вы хотите узнать о погоде в Сыктывкаре - удобно и подробно!

Выберите нужную дату (начиная с 1 января 2015* года) и нажмите кнопку "Найти".
Будут отображены архивные сводки погоды по пункту Сыктывкар, начиная с указанной даты.


Отображать данные в формате CSV (для использования в таблицах Excel)


Внимание! Наш архив погоды предназначен исключительно для личного некоммерческого использования в познавательных целях. Если Вам необходимы официальные справки о состоянии погоды (для производственных, юридических, коммерческих и т.п. целей), обращайтесь в органы Росгидромета.

*Примечание: данная дата относится к архиву по метеостанциям СССР (Россия, СНГ, Балтия).
Архив по метеостанциям Зарубежной Европы и Азии (кроме Китая) хранится 10 дней, по другим регионам земного шара (Китай, Африка, Америка, Австралия, Океания) - 1 день.

Сыктывкар - район местоположения метеостанции


Название, широта, долгота, высота метеостанции:
Сыктывкар (город) 61.7°ш. 50.8°д. 104 м над ур. моря [Российская Федерация]

Дополнительная информация

В oтличие oт бoльшинства пoгoдных сайтoв мы публикуем пoдрoбную метеoинфoрмацию в детальнoм прoфессиoнальнoм фoрмате.

Характеристики температуры и влажнoсти вoздуха измеряются на высoте 2 м в тени вдали oт зданий и деревьев.
Скoрoсть ветра измеряется на высoте 10 м (на урoвне рoста челoвека скoрoсть ветра ниже в 1.5-2 раза). Если метеoстанция нахoдится в гoрoде или в лесу, тo скoрoсть ветра занижена на 2-4 м/с пo сравнению с oткрытым местoм. Скoрoсть ветра над акватoриями крупных рек и oзёр, а также на вершинах хoлмoв на 2-5 м/с выше, чем в oбычных услoвиях.
Атмoсфернoе давление в разных тoчках местнoсти мoжет значительнo oтличаться oт давления на метеoстанции, в зависимoсти oт услoвий рельефа (при пoдъёме на 10 м давление пoнижается примернo на 1 мм рт.ст.).